EW9138 Weather Reports


Display with metric or nautical units.
time (UTC)temp
F
wind
direction
speed
MPH
gust
MPH
rain 1hr
in
rain 24hr
in
rain mn
in
humidity
%
barometer
mb
20220625044756 63 185 5.0 12.0 0.00 0.03 0.00 49 1014.9
20220625044256 63 126 5.0 15.0 0.00 0.03 0.00 47 1014.9
20220625043756 63 194 6.0 15.0 0.00 0.03 0.00 45 1014.9
20220625043255 63 169 6.0 8.0 0.00 0.03 0.00 46 1014.6
20220625042756 63 170 5.0 12.0 0.00 0.03 0.00 43 1014.6
20220625042255 62 146 5.0 13.0 0.00 0.03 0.00 42 1014.6
20220625041756 62 200 4.0 13.0 0.00 0.03 0.00 42 1014.6
20220625041256 62 189 3.0 12.0 0.00 0.03 0.00 46 1014.6
20220625040756 62 196 5.0 12.0 0.00 0.03 0.00 39 1014.6
20220625040256 61 179 6.0 9.0 0.00 0.03 0.00 43 1014.3
20220625035756 61 201 6.0 9.0 0.00 0.03 0.00 44 1014.3
20220625035256 61 180 6.0 9.0 0.00 0.03 0.00 45 1014.3
20220625034756 62 163 5.0 9.0 0.00 0.03 0.00 44 1014.2
20220625034255 62 193 5.0 9.0 0.00 0.03 0.00 45 1014.2
20220625033755 62 193 5.0 9.0 0.00 0.03 0.00 46 1014.2
20220625033256 62 183 6.0 13.0 0.00 0.03 0.00 45 1014.2
20220625032756 62 181 6.0 13.0 0.00 0.03 0.00 46 1014.2
20220625032256 62 190 7.0 12.0 0.00 0.03 0.00 45 1014.2
20220625031755 62 184 6.0 12.0 0.00 0.03 0.00 45 1014.2
20220625031255 62 185 5.0 12.0 0.00 0.03 0.00 41 1014.2
20220625030756 62 201 5.0 9.0 0.00 0.03 0.00 43 1014.2
20220625030256 62 192 5.0 7.0 0.00 0.03 0.00 43 1014.2
20220625025756 62 177 5.0 9.0 0.00 0.03 0.00 37 1014.2
20220625025256 62 165 5.0 9.0 0.00 0.03 0.00 42 1014.2
20220625024756 62 206 5.0 9.0 0.00 0.03 0.00 43 1014.2
20220625024256 62 186 5.0 9.0 0.00 0.03 0.00 42 1014.2
20220625023756 62 190 5.0 8.0 0.00 0.03 0.00 41 1014.2
20220625023256 62 176 5.0 8.0 0.00 0.03 0.00 41 1014.0
20220625022756 62 192 5.0 9.0 0.00 0.03 0.00 42 1014.0
20220625022256 62 198 5.0 9.0 0.00 0.03 0.00 41 1014.0
20220625021756 62 189 3.0 10.0 0.00 0.03 0.00 41 1014.0
20220625021256 62 170 3.0 10.0 0.00 0.03 0.00 40 1014.0
20220625020756 62 184 3.0 7.0 0.00 0.03 0.00 40 1014.0
20220625020256 62 181 3.0 7.0 0.00 0.03 0.00 40 1013.8
20220625015756 62 191 3.0 8.0 0.00 0.03 0.00 41 1013.8
20220625015256 63 248 2.0 8.0 0.00 0.03 0.00 44 1013.8
20220625014756 63 316 2.0 7.0 0.00 0.03 0.00 42 1013.7
20220625014256 63 241 2.0 7.0 0.00 0.03 0.00 50 1013.7
20220625013756 64 216 3.0 6.0 0.00 0.03 0.00 51 1013.7
20220625013256 64 184 5.0 9.0 0.00 0.03 0.00 48 1013.7
20220625012756 64 155 4.0 9.0 0.00 0.03 0.00 48 1013.7
20220625012256 64 174 3.0 9.0 0.00 0.03 0.00 54 1013.7
20220625011756 64 174 4.0 9.0 0.00 0.03 0.00 54 1013.7
20220625011256 64 190 5.0 8.0 0.00 0.03 0.00 53 1013.7
20220625010757 64 188 3.0 9.0 0.00 0.03 0.00 54 1013.7
20220625010257 64 181 2.0 9.0 0.00 0.03 0.00 53 1013.7
20220625005756 64 161 4.0 9.0 0.00 0.03 0.00 49 1013.7
20220625005256 64 345 5.0 9.0 0.00 0.03 0.00 51 1013.7
20220625004756 64 198 5.0 10.0 0.00 0.03 0.00 53 1013.7
20220625004256 64 175 5.0 10.0 0.00 0.03 0.00 52 1013.7
20220625003757 64 202 3.0 10.0 0.00 0.03 0.00 54 1013.7
20220625003256 65 211 2.0 6.0 0.00 0.03 0.00 55 1013.7
20220625002757 65 327 3.0 5.0 0.00 0.03 0.00 53 1013.7
20220625002256 65 260 5.0 12.0 0.00 0.03 0.00 54 1013.7
20220625001756 65 209 5.0 12.0 0.00 0.03 0.00 55 1013.6
20220625001256 65 179 6.0 12.0 0.00 0.03 0.00 56 1013.6
20220625000757 65 165 6.0 14.0 0.00 0.03 0.00 56 1013.6
20220625000257 66 204 6.0 14.0 0.00 0.03 0.00 56 1013.7
20220624235756 66 159 5.0 14.0 0.00 0.03 0.00 56 1013.7
20220624235256 66 121 5.0 13.0 0.00 0.03 0.00 55 1013.7
20220624234756 66 108 6.0 13.0 0.00 0.03 0.00 56 1013.6
20220624234256 66 94 6.0 12.0 0.00 0.03 0.00 58 1013.6
20220624233757 66 289 6.0 15.0 0.00 0.03 0.00 56 1013.6
20220624233257 66 34 6.0 15.0 0.00 0.03 0.00 55 1013.7
20220624232756 65 36 6.0 13.0 0.00 0.03 0.00 53 1013.7
20220624232256 65 62 7.0 14.0 0.00 0.03 0.00 52 1013.7
20220624231756 65 13 5.0 16.0 0.00 0.03 0.00 50 1013.3
20220624231256 65 48 3.0 16.0 0.00 0.03 0.00 49 1013.3
20220624230756 65 132 3.0 14.0 0.00 0.03 0.00 53 1013.3
20220624230257 65 343 2.0 8.0 0.00 0.03 0.00 54 1013.4
20220624225757 65 219 3.0 8.0 0.00 0.03 0.00 58 1013.4
20220624225257 65 227 3.0 8.0 0.00 0.03 0.00 57 1013.4
20220624224756 65 101 4.0 8.0 0.00 0.03 0.00 58 1013.4
20220624224257 65 176 5.0 8.0 0.00 0.03 0.00 59 1013.4
20220624223756 65 161 5.0 8.0 0.00 0.03 0.00 58 1013.4
20220624223256 65 182 5.0 8.0 0.00 0.03 0.00 58 1013.4
20220624222757 64 210 4.0 8.0 0.00 0.03 0.00 58 1013.4
20220624222257 64 176 3.0 8.0 0.00 0.03 0.00 58 1013.4
20220624221756 64 186 3.0 7.0 0.00 0.03 0.00 57 1013.2
20220624221257 65 209 2.0 6.0 0.00 0.03 0.00 55 1013.2
20220624220908 65 70 2.0 8.0 0.00 0.03 0.00 49 1013.2
20220624220256 65 63 2.0 8.0 0.00 0.03 0.00 55 1013.0
20220624215756 65 163 1.0 8.0 0.00 0.03 0.03 59 1013.0
20220624215256 65 126 0.0 5.0 0.00 0.03 0.03 56 1013.0
20220624214757 65 171 2.0 5.0 0.00 0.03 0.03 57 1013.2
20220624214257 65 54 3.0 6.0 0.00 0.03 0.03 50 1013.2
20220624213756 66 153 4.0 6.0 0.00 0.03 0.03 54 1013.2
20220624213256 66 113 5.0 8.0 0.00 0.03 0.03 54 1013.2
20220624212756 66 173 3.0 8.0 0.00 0.03 0.03 59 1013.2
20220624212256 66 177 2.0 8.0 0.00 0.03 0.03 60 1013.2
20220624211757 66 177 3.0 8.0 0.00 0.03 0.03 59 1013.1
20220624211257 67 196 3.0 7.0 0.00 0.03 0.03 58 1013.1
20220624210756 67 196 4.0 8.0 0.00 0.03 0.03 59 1013.1
20220624210256 67 181 5.0 8.0 0.00 0.03 0.03 60 1013.2
20220624205757 67 182 5.0 8.0 0.00 0.03 0.03 60 1013.2
20220624205257 67 200 5.0 6.0 0.00 0.03 0.03 59 1013.2
20220624204757 67 172 5.0 8.0 0.00 0.03 0.03 59 1013.0
20220624204257 67 215 6.0 8.0 0.00 0.03 0.03 59 1013.0
20220624203756 67 189 6.0 10.0 0.00 0.03 0.03 59 1013.0
20220624203257 67 193 6.0 12.0 0.00 0.03 0.03 59 1013.0
20220624202757 67 200 5.0 12.0 0.00 0.03 0.03 59 1013.0
20220624202257 67 199 5.0 10.0 0.00 0.03 0.03 59 1013.0
20220624201757 68 175 3.0 8.0 0.00 0.03 0.03 59 1013.0
20220624201257 68 180 3.0 7.0 0.00 0.03 0.03 59 1013.0
20220624200756 68 146 5.0 7.0 0.00 0.03 0.03 59 1013.0
20220624200257 68 187 6.0 9.0 0.00 0.03 0.03 59 1012.8
20220624195757 68 159 6.0 9.0 0.00 0.03 0.03 59 1012.8
20220624195257 68 188 6.0 9.0 0.00 0.03 0.03 59 1012.8
20220624194757 69 196 5.0 9.0 0.00 0.03 0.03 59 1012.5
20220624194257 69 173 5.0 9.0 0.00 0.03 0.03 59 1012.5
20220624193756 69 213 5.0 9.0 0.00 0.03 0.03 59 1012.5
20220624193256 70 199 5.0 9.0 0.00 0.03 0.03 59 1012.3
20220624192757 70 162 3.0 10.0 0.00 0.03 0.03 59 1012.3
20220624192257 70 176 2.0 10.0 0.00 0.03 0.03 59 1012.3
20220624191756 70 12 2.0 10.0 0.00 0.03 0.03 59 1012.1
20220624191256 70 214 2.0 8.0 0.00 0.03 0.03 59 1012.1
20220624190757 71 275 2.0 8.0 0.00 0.03 0.03 59 1012.1
20220624190256 71 171 2.0 8.0 0.00 0.03 0.03 59 1012.1
20220624185757 71 247 3.0 6.0 0.00 0.03 0.03 59 1012.1
20220624185256 71 172 3.0 7.0 0.00 0.03 0.03 58 1012.1
20220624184757 71 192 4.0 7.0 0.00 0.03 0.03 59 1012.0
20220624184256 72 187 5.0 12.0 0.00 0.03 0.03 58 1012.0
20220624183756 72 23 4.0 16.0 0.00 0.03 0.03 58 1012.0
20220624183257 72 108 3.0 16.0 0.00 0.03 0.03 56 1012.1
20220624182756 72 37 3.0 16.0 0.00 0.03 0.03 56 1012.1
20220624182257 72 302 2.0 16.0 0.00 0.03 0.03 56 1012.1
20220624181757 72 194 4.0 14.0 0.00 0.03 0.03 57 1012.0
20220624181256 72 109 6.0 14.0 0.00 0.03 0.03 56 1012.0
20220624180757 72 188 5.0 13.0 0.00 0.03 0.03 56 1012.0
20220624180256 72 182 3.0 10.0 0.01 0.03 0.03 57 1012.0
20220624175756 73 153 5.0 9.0 0.03 0.03 0.03 57 1012.0
20220624175257 73 129 7.0 15.0 0.03 0.03 0.03 59 1012.0
20220624174757 73 251 6.0 18.0 0.03 0.03 0.03 57 1011.7
20220624174257 73 34 5.0 18.0 0.03 0.03 0.03 57 1011.7
20220624173757 72 50 6.0 14.0 0.03 0.03 0.03 58 1011.7
20220624173257 73 153 7.0 14.0 0.03 0.03 0.03 59 1011.9
20220624172756 72 151 6.0 14.0 0.03 0.03 0.03 56 1011.9
20220624172257 73 179 6.0 16.0 0.03 0.03 0.03 59 1011.9
20220624171756 74 345 6.0 17.0 0.03 0.03 0.03 56 1011.5
20220624171257 75 186 7.0 17.0 0.03 0.03 0.03 54 1011.5
20220624170757 75 161 6.0 17.0 0.03 0.03 0.03 57 1011.5
20220624170257 76 233 6.0 15.0 0.02 0.02 0.02 55 1011.1
20220624165757 76 292 5.0 14.0 0.00 0.00 0.00 54 1011.1
20220624165256 76 195 5.0 13.0 0.00 0.00 0.00 53 1011.1
20220624164757 77 185 5.0 12.0 0.00 0.00 0.00 56 1011.3
20220624164257 78 196 5.0 14.0 0.00 0.00 0.00 52 1011.3
20220624163757 79 202 3.0 14.0 0.00 0.00 0.00 53 1011.3
20220624163257 79 302 2.0 14.0 0.00 0.00 0.00 47 1011.0
20220624162758 80 192 2.0 6.0 0.00 0.00 0.00 50 1011.0
20220624162258 80 215 1.0 6.0 0.00 0.00 0.00 50 1011.0
20220624161757 81 282 2.0 6.0 0.00 0.00 0.00 46 1011.1
20220624161257 81 184 2.0 6.0 0.00 0.00 0.00 46 1011.1
20220624160758 81 300 3.0 7.0 0.00 0.00 0.00 44 1011.1
20220624160257 81 327 5.0 10.0 0.00 0.00 0.00 44 1011.2
20220624155757 81 295 5.0 10.0 0.00 0.00 0.00 43 1011.2
20220624155257 81 295 6.0 13.0 0.00 0.00 0.00 43 1011.2
20220624154757 82 280 5.0 13.0 0.00 0.00 0.00 42 1011.1
20220624154258 82 276 5.0 13.0 0.00 0.00 0.00 42 1011.1
20220624153757 82 5 5.0 13.0 0.00 0.00 0.00 43 1011.1
20220624153257 83 330 5.0 13.0 0.00 0.00 0.00 43 1010.9
20220624152757 83 280 5.0 10.0 0.00 0.00 0.00 42 1010.9
20220624152258 83 242 5.0 10.0 0.00 0.00 0.00 41 1010.9
20220624151758 84 246 5.0 13.0 0.00 0.00 0.00 41 1011.1
20220624151257 84 170 6.0 15.0 0.00 0.00 0.00 42 1011.1
20220624150758 83 310 6.0 15.0 0.00 0.00 0.00 41 1011.1
20220624150257 84 320 6.0 14.0 0.00 0.00 0.00 40 1011.2
20220624145757 84 270 5.0 14.0 0.00 0.00 0.00 40 1011.2
20220624145257 83 281 3.0 14.0 0.00 0.00 0.00 40 1011.2
20220624144758 83 290 3.0 14.0 0.00 0.00 0.00 41 1010.9
20220624144257 83 311 2.0 14.0 0.00 0.00 0.00 41 1010.9
20220624143758 83 287 2.0 14.0 0.00 0.00 0.00 41 1010.9
20220624143257 83 293 2.0 12.0 0.00 0.00 0.00 40 1010.9
20220624142757 83 263 3.0 9.0 0.00 0.00 0.00 42 1010.9
20220624142257 82 303 3.0 9.0 0.00 0.00 0.00 42 1010.9
20220624141757 82 304 5.0 12.0 0.00 0.00 0.00 41 1010.9
20220624141258 83 332 6.0 14.0 0.00 0.00 0.00 41 1010.9
20220624140758 83 296 5.0 14.0 0.00 0.00 0.00 41 1010.9
20220624140258 84 328 5.0 13.0 0.00 0.00 0.00 40 1011.0
20220624135758 83 70 6.0 15.0 0.00 0.00 0.00 41 1011.0
20220624135257 83 263 7.0 15.0 0.00 0.00 0.00 41 1011.0
20220624134757 82 1 7.0 15.0 0.00 0.00 0.00 42 1011.1
20220624134258 83 23 8.0 17.0 0.00 0.00 0.00 42 1011.1
20220624133757 83 353 6.0 17.0 0.00 0.00 0.00 41 1011.1
20220624133257 83 354 6.0 14.0 0.00 0.00 0.00 43 1011.4
20220624132758 83 51 6.0 14.0 0.00 0.00 0.00 43 1011.4
20220624132258 83 67 7.0 14.0 0.00 0.00 0.00 44 1011.4
20220624131757 82 325 6.0 15.0 0.00 0.00 0.00 45 1011.5
20220624131257 82 312 6.0 15.0 0.00 0.00 0.00 45 1011.5
20220624130757 83 264 4.0 15.0 0.00 0.00 0.00 45 1011.5
20220624130258 82 290 3.0 13.0 0.00 0.00 0.00 48 1011.6
20220624125758 82 22 5.0 14.0 0.00 0.00 0.00 49 1011.6
20220624125257 81 308 7.0 16.0 0.00 0.00 0.00 48 1011.6
20220624124758 81 345 5.0 16.0 0.00 0.00 0.00 49 1011.9
20220624124257 81 342 5.0 14.0 0.00 0.00 0.00 49 1011.9
20220624123757 81 247 5.0 14.0 0.00 0.00 0.00 51 1011.9
20220624123258 81 71 5.0 14.0 0.00 0.00 0.00 51 1011.9
20220624122758 81 287 5.0 13.0 0.00 0.00 0.00 53 1011.9
20220624122258 81 295 5.0 13.0 0.00 0.00 0.00 52 1011.9
20220624121758 81 267 5.0 13.0 0.00 0.00 0.00 52 1011.9
20220624121257 81 3 5.0 14.0 0.00 0.00 0.00 52 1011.9
20220624120757 81 197 5.0 15.0 0.00 0.00 0.00 50 1011.9
20220624120258 81 279 5.0 15.0 0.00 0.00 0.00 51 1012.0
20220624115758 81 319 5.0 14.0 0.00 0.00 0.00 52 1012.0
20220624115257 81 95 5.0 14.0 0.00 0.00 0.00 51 1012.0
20220624114758 81 285 3.0 14.0 0.00 0.00 0.00 50 1011.9
20220624114258 81 261 2.0 12.0 0.00 0.00 0.00 51 1011.9
20220624113758 81 295 3.0 12.0 0.00 0.00 0.00 50 1011.9
20220624113258 81 308 5.0 14.0 0.00 0.00 0.00 50 1012.0
20220624112758 81 315 3.0 14.0 0.00 0.00 0.00 50 1012.0
20220624112258 82 261 2.0 9.0 0.00 0.00 0.00 50 1012.0
20220624111758 82 268 2.0 9.0 0.00 0.00 0.00 51 1012.0
20220624111258 82 290 2.0 13.0 0.00 0.00 0.00 51 1012.0
20220624110757 81 339 2.0 13.0 0.00 0.00 0.00 51 1012.0
20220624110258 81 269 1.0 13.0 0.00 0.00 0.00 51 1012.1
20220624105757 81 256 2.0 5.0 0.00 0.00 0.00 52 1012.1
20220624105257 81 285 2.0 6.0 0.00 0.00 0.00 54 1012.1
20220624104758 80 14 2.0 6.0 0.00 0.00 0.00 53 1011.9
20220624104258 80 332 2.0 7.0 0.00 0.00 0.00 53 1011.9
20220624103757 80 283 2.0 7.0 0.00 0.00 0.00 54 1011.9
20220624103257 79 297 2.0 8.0 0.00 0.00 0.00 55 1012.4
20220624102757 79 29 1.0 8.0 0.00 0.00 0.00 56 1012.4
20220624102258 79 57 0.0 5.0 0.00 0.00 0.00 56 1012.4
20220624101758 79 67 1.0 5.0 0.00 0.00 0.00 56 1012.4
20220624101258 78 347 2.0 6.0 0.00 0.00 0.00 56 1012.4
20220624100758 78 157 1.0 7.0 0.00 0.00 0.00 56 1012.4
20220624100257 77 185 0.0 7.0 0.00 0.00 0.00 56 1012.4
20220624095757 77 133 1.0 5.0 0.00 0.00 0.00 56 1012.4
20220624095258 77 69 2.0 2.0 0.00 0.00 0.00 56 1012.4
20220624094758 77 52 3.0 5.0 0.00 0.00 0.00 54 1012.4
20220624094258 76 28 5.0 6.0 0.00 0.00 0.00 52 1012.4
20220624093757 76 58 5.0 8.0 0.00 0.00 0.00 54 1012.4
20220624093258 76 111 5.0 8.0 0.00 0.00 0.00 53 1012.5
20220624092757 76 62 4.0 8.0 0.00 0.00 0.00 51 1012.5
20220624092257 76 117 3.0 8.0 0.00 0.00 0.00 52 1012.5
20220624091758 76 90 3.0 8.0 0.00 0.00 0.00 52 1012.5
20220624091258 76 48 2.0 7.0 0.00 0.00 0.00 51 1012.5
20220624090758 76 80 2.0 7.0 0.00 0.00 0.00 51 1012.5
20220624090257 76 46 2.0 5.0 0.00 0.00 0.00 51 1012.5
20220624085758 76 87 2.0 6.0 0.00 0.00 0.00 54 1012.5
20220624085257 76 79 1.0 7.0 0.00 0.00 0.00 51 1012.5
20220624084758 76 77 2.0 7.0 0.00 0.00 0.00 54 1012.6
20220624084257 76 56 2.0 5.0 0.00 0.00 0.00 49 1012.6
20220624083757 76 50 2.0 7.0 0.00 0.00 0.00 53 1012.6
20220624083258 75 91 2.0 7.0 0.00 0.00 0.00 55 1012.7
20220624082757 75 76 2.0 7.0 0.00 0.00 0.00 48 1012.7
20220624082257 74 130 2.0 5.0 0.00 0.00 0.00 45 1012.7
20220624081758 74 194 3.0 5.0 0.00 0.00 0.00 40 1012.7
20220624081257 73 93 3.0 6.0 0.00 0.00 0.00 38 1012.7
20220624080757 73 80 3.0 6.0 0.00 0.00 0.00 34 1012.7
20220624080258 73 107 3.0 8.0 0.00 0.00 0.00 33 1012.8
20220624075758 72 73 2.0 8.0 0.00 0.00 0.00 29 1012.8
20220624075258 72 65 0.0 8.0 0.00 0.00 0.00 31 1012.8
20220624074758 72 88 1.0 2.0 0.00 0.00 0.00 30 1013.1
20220624074258 72 68 2.0 5.0 0.00 0.00 0.00 31 1013.1
20220624073757 72 104 3.0 5.0 0.00 0.00 0.00 28 1013.1
20220624073257 71 82 3.0 5.0 0.00 0.00 0.00 27 1013.2
20220624072758 71 110 3.0 6.0 0.00 0.00 0.00 27 1013.2
20220624072258 71 42 2.0 6.0 0.00 0.00 0.00 26 1013.2
20220624071758 71 95 2.0 6.0 0.00 0.00 0.00 26 1013.4
20220624071258 70 99 1.0 5.0 0.00 0.00 0.00 25 1013.4
20220624070758 70 136 1.0 5.0 0.00 0.00 0.00 23 1013.4
20220624070258 70 161 0.0 5.0 0.00 0.00 0.00 18 1013.5
20220624065758 70 199 0.0 5.0 0.00 0.00 0.00 18 1013.5
20220624065258 70 221 0.0 2.0 0.00 0.00 0.00 12 1013.5
20220624064758 69 221 0.0 2.0 0.00 0.00 0.00 9 1013.5
20220624064257 69 221 0.0 2.0 0.00 0.00 0.00 10 1013.5
20220624063758 69 221 1.0 2.0 0.00 0.00 0.00 10 1013.5
20220624063258 69 193 2.0 5.0 0.00 0.00 0.00 11 1013.4
20220624062758 68 102 2.0 5.0 0.00 0.00 0.00 12 1013.4
20220624062258 68 184 2.0 5.0 0.00 0.00 0.00 5 1013.4
20220624061758 68 163 1.0 3.0 0.00 0.00 0.00 7 1013.3
20220624061258 68 163 0.0 3.0 0.00 0.00 0.00 6 1013.3
20220624060757 67 142 0.0 2.0 0.00 0.00 0.00 4 1013.3
20220624060258 67 141 0.0 2.0 0.00 0.00 0.00 3 1013.4
20220624055758 67 141 0.0 2.0 0.00 0.00 0.00 3 1013.4
20220624055258 67 114 0.0 1.0 0.00 0.00 0.00 2 1013.4
20220624054758 67 68 0.0 0.0 0.00 0.00 0.00 3 1013.4
20220624054257 67 68 0.0 1.0 0.00 0.00 0.00 2 1013.4
20220624053758 67 68 0.0 1.0 0.00 0.00 0.00 1 1013.4
20220624053258 67 66 0.0 0.0 0.00 0.00 0.00 1 1013.3
20220624052758 66 66 0.0 1.0 0.00 0.00 0.00 1 1013.3
20220624052257 66 66 0.0 1.0 0.00 0.00 0.00 1 1013.3
20220624051758 66 66 0.0 1.0 0.00 0.00 0.00 1 1013.4
20220624051258 66 66 0.0 1.0 0.00 0.00 0.00 1 1013.4
20220624050758 66 65 0.0 1.0 0.00 0.00 0.00 1 1013.4
20220624050259 66 65 0.0 1.0 0.00 0.00 0.00 1 1013.3
20220624045758 66 77 0.0 1.0 0.00 0.00 0.00 1 1013.3
20220624045258 66 61 0.0 0.0 0.00 0.00 0.00 1 1013.3